"Pseudo-MPEC" for CC850U2
Created 2024 Oct 31 11:31:18 UT using Find_Orb
Click here for an explanation of pseudo-MPECs
Astrometry:
CC850U2*1C2024 10 31.35071403 54 08.518+06 31 16.07 ~AV9H 22.05GVNEOCPG96
CC850U2 1C2024 10 31.35591403 54 09.616+06 31 42.35 ~AV9H 21.60GVNEOCPG96
CC850U2 1C2024 10 31.36111603 54 10.750+06 32 09.06 ~AV9H 21.11GVNEOCPG96
CC850U2 1C2024 10 31.36631803 54 11.945+06 32 34.19 ~AV9H 22.46GVNEOCPG96
Station data:
(G96) Mt. Lemmon Survey (N32.442729 W110.788720) US/Arizona. Observer E.
J. Christensen. 1.5-m reflector + 10K CCD.
Orbital elements: CC850U2
Perihelion 2024 Dec 27.39938 +/- 33.4 TT = 9:35:06 (JD 2460671.89938)
Epoch 2024 Oct 31.0 TT = JDT 2460614.5 Earth MOID: 0.0133 AutoNEOCP
M 332.72445093 +/- 22 (J2000 ecliptic)
n 0.47518889 +/- 0.347 Peri. 84.43751 +/- 60
a 1.62639187 +/- 0.791 Node 44.06937 +/- 48
e 0.5785562 +/- 0.245 Incl. 13.38332 +/- 6
P 2.074/757.579d H 26.21 G 0.15 U 12.0 SR
q 0.68543270 +/- 0.263 Q 2.56735103 +/- 41.6
From 4 observations 2024 Oct. 31 (22.5 min); mean residual 0".36
Residuals in arcseconds: 241031 G96 .33+ .20- 241031 G96 .41- .60+ 241031 G96 .29- .00 241031 G96 .37+ .40- Ephemerides (geocentric): Date (UTC) HH RA Dec delta r elong mag " sig PA ---- -------- ------------ ------------ ------ ------ ----- --- -------- 2024 10 31 12 03 54 46.973 +06 44 42.78 .08426 1.0704 156.3 22.0 17d 96 2024 10 31 13 03 54 58.048 +06 48 20.49 .08384 1.0700 156.3 22.0 17d 97 2024 10 31 14 03 55 09.233 +06 52 00.43 .08341 1.0696 156.4 22.0 25d 91 2024 10 31 15 03 55 20.528 +06 55 42.65 .08299 1.0692 156.4 22.0 25d 96 2024 10 31 16 03 55 31.936 +06 59 27.17 .08256 1.0688 156.4 22.0 24d 96 2024 10 31 17 03 55 43.457 +07 03 14.03 .08214 1.0684 156.4 22.0 28d 96 2024 10 31 18 03 55 55.095 +07 07 03.26 .08172 1.0680 156.4 22.0 30d 93 2024 10 31 19 03 56 06.850 +07 10 54.90 .08129 1.0676 156.4 22.0 31d 94 2024 10 31 20 03 56 18.725 +07 14 48.98 .08087 1.0672 156.4 21.9 34d 92 2024 10 31 21 03 56 30.722 +07 18 45.55 .08044 1.0668 156.4 21.9 35d 91 2024 10 31 22 03 56 42.843 +07 22 44.63 .08002 1.0664 156.4 21.9 35d 91 2024 10 31 23 03 56 55.089 +07 26 46.27 .07960 1.0660 156.5 21.9 35d 91 2024 11 01 00 03 57 07.462 +07 30 50.50 .07918 1.0656 156.5 21.9 35d 91 2024 11 01 01 03 57 19.966 +07 34 57.36 .07875 1.0652 156.5 21.9 35d 91 2024 11 01 02 03 57 32.601 +07 39 06.90 .07833 1.0648 156.5 21.9 35d 91 2024 11 01 03 03 57 45.371 +07 43 19.15 .07791 1.0644 156.5 21.9 35d 91 2024 11 01 04 03 57 58.277 +07 47 34.15 .07749 1.0640 156.5 21.9 35d 91 2024 11 01 05 03 58 11.321 +07 51 51.96 .07707 1.0636 156.5 21.8 35d 92 2024 11 01 06 03 58 24.507 +07 56 12.61 .07665 1.0632 156.5 21.8 38d 92 2024 11 01 07 03 58 37.836 +08 00 36.14 .07622 1.0628 156.5 21.8 39d 92 2024 11 01 08 03 58 51.312 +08 05 02.61 .07580 1.0624 156.5 21.8 41d 91 2024 11 01 09 03 59 04.935 +08 09 32.06 .07538 1.0620 156.5 21.8 42d 90 2024 11 01 10 03 59 18.710 +08 14 04.53 .07496 1.0616 156.5 21.8 42d 90 2024 11 01 11 03 59 32.638 +08 18 40.07 .07454 1.0612 156.5 21.8 42d 90 2024 11 01 12 03 59 46.722 +08 23 18.73 .07412 1.0608 156.5 21.7 43d 90 2024 11 01 13 04 00 00.966 +08 28 00.57 .07371 1.0604 156.5 21.7 44d 91 2024 11 01 14 04 00 15.371 +08 32 45.63 .07329 1.0600 156.5 21.7 45d 90 2024 11 01 15 04 00 29.941 +08 37 33.97 .07287 1.0596 156.5 21.7 45d 90 2024 11 01 16 04 00 44.679 +08 42 25.64 .07245 1.0592 156.5 21.7 45d 90 2024 11 01 17 04 00 59.587 +08 47 20.69 .07203 1.0588 156.5 21.7 45d 90 2024 11 01 18 04 01 14.669 +08 52 19.18 .07161 1.0585 156.5 21.7 46d 90 2024 11 01 19 04 01 29.928 +08 57 21.16 .07120 1.0581 156.5 21.7 46d 90 2024 11 01 20 04 01 45.367 +09 02 26.70 .07078 1.0577 156.5 21.6 47d 90 2024 11 01 21 04 02 00.990 +09 07 35.85 .07036 1.0573 156.5 21.6 48d 90 2024 11 01 22 04 02 16.799 +09 12 48.67 .06994 1.0569 156.5 21.6 48d 90 2024 11 01 23 04 02 32.799 +09 18 05.23 .06953 1.0565 156.5 21.6 49d 90 2024 11 02 00 04 02 48.992 +09 23 25.58 .06911 1.0561 156.5 21.6 49d 90 2024 11 02 01 04 03 05.383 +09 28 49.80 .06870 1.0557 156.5 21.6 50d 90 2024 11 02 02 04 03 21.975 +09 34 17.94 .06828 1.0553 156.5 21.6 51d 89 2024 11 02 03 04 03 38.772 +09 39 50.08 .06787 1.0549 156.5 21.5 52d 89 2024 11 02 04 04 03 55.778 +09 45 26.29 .06745 1.0545 156.5 21.5 52d 89 2024 11 02 05 04 04 12.997 +09 51 06.62 .06704 1.0541 156.5 21.5 52d 89 2024 11 02 06 04 04 30.433 +09 56 51.16 .06662 1.0537 156.5 21.5 53d 89 2024 11 02 07 04 04 48.090 +10 02 39.98 .06621 1.0533 156.5 21.5 53d 89 2024 11 02 08 04 05 05.973 +10 08 33.16 .06579 1.0529 156.5 21.5 53d 88 2024 11 02 09 04 05 24.086 +10 14 30.76 .06538 1.0525 156.5 21.5 54d 90 2024 11 02 10 04 05 42.433 +10 20 32.87 .06497 1.0521 156.4 21.5 54d 90 2024 11 02 11 04 06 01.020 +10 26 39.57 .06456 1.0517 156.4 21.4 54d 90